| time (UTC) | temp F | wind direction | speed knots | gust knots | rain 1hr in | rain 24hr in | rain mn in | humidity % | barometer mb |
| 20260510234525 | 49 | 157 | 4.3 | 7.0 | 0.00 | 0.11 | 0.00 | 84 | 1012.6 |
| 20260510233023 | 49 | 158 | 2.6 | 6.1 | 0.00 | 0.11 | 0.00 | 83 | 1012.4 |
| 20260510231520 | 49 | 161 | 3.5 | 6.1 | 0.00 | 0.11 | 0.00 | 82 | 1012.3 |
| 20260510230018 | 50 | 182 | 2.6 | 6.1 | 0.00 | 0.13 | 0.00 | 81 | 1012.1 |
| 20260510224526 | 50 | 180 | 4.3 | 6.1 | 0.00 | 0.13 | 0.00 | 81 | 1012.0 |
| 20260510223013 | 51 | 174 | 0.9 | 2.6 | 0.00 | 0.13 | 0.00 | 80 | 1011.9 |
| 20260510221515 | 51 | 174 | 1.7 | 3.5 | 0.00 | 0.13 | 0.00 | 80 | 1011.9 |
| 20260510220011 | 51 | 174 | 2.6 | 5.2 | 0.00 | 0.19 | 0.13 | 79 | 1011.8 |
| 20260510214508 | 51 | 174 | 1.7 | 4.3 | 0.00 | 0.19 | 0.13 | 80 | 1011.8 |
| 20260510213008 | 51 | 174 | 1.7 | 3.5 | 0.00 | 0.19 | 0.13 | 79 | 1011.7 |
| 20260510211508 | 51 | 174 | 1.7 | 3.5 | 0.00 | 0.19 | 0.13 | 78 | 1011.7 |
| 20260510210006 | 52 | 175 | 3.5 | 6.1 | 0.00 | 0.20 | 0.13 | 77 | 1011.6 |
| 20260510204506 | 52 | 182 | 4.3 | 9.6 | 0.00 | 0.20 | 0.13 | 75 | 1011.5 |
| 20260510203006 | 54 | 267 | 0.9 | 2.6 | 0.00 | 0.20 | 0.13 | 71 | 1011.2 |
| 20260510201505 | 55 | 267 | 0.0 | 0.9 | 0.00 | 0.20 | 0.13 | 69 | 1011.1 |
| 20260510200005 | 55 | 267 | 0.9 | 1.7 | 0.00 | 0.20 | 0.13 | 68 | 1010.8 |
| 20260510194504 | 55 | 267 | 0.9 | 2.6 | 0.00 | 0.20 | 0.13 | 68 | 1010.8 |
| 20260510193005 | 55 | 267 | 0.0 | 1.7 | 0.00 | 0.20 | 0.13 | 68 | 1010.7 |
| 20260510191504 | 56 | 267 | 0.9 | 2.6 | 0.00 | 0.20 | 0.13 | 67 | 1010.6 |
| 20260510190003 | 57 | 265 | 0.9 | 5.2 | 0.00 | 0.20 | 0.13 | 65 | 1010.5 |
| 20260510184502 | 57 | 277 | 0.9 | 5.2 | 0.00 | 0.20 | 0.13 | 64 | 1010.4 |
| 20260510183001 | 58 | 279 | 1.7 | 7.0 | 0.00 | 0.20 | 0.13 | 63 | 1010.3 |
| 20260510181502 | 58 | 273 | 1.7 | 7.0 | 0.00 | 0.20 | 0.13 | 62 | 1010.3 |
| 20260510180001 | 57 | 225 | 3.5 | 8.7 | 0.00 | 0.20 | 0.13 | 64 | 1010.1 |
| 20260510174501 | 57 | 262 | 2.6 | 7.8 | 0.00 | 0.20 | 0.13 | 63 | 1010.4 |
| 20260510173001 | 58 | 281 | 3.5 | 14.8 | 0.00 | 0.20 | 0.13 | 58 | 1010.2 |
| 20260510171605 | 60 | 232 | 6.1 | 13.0 | 0.00 | 0.20 | 0.13 | 52 | 1010.1 |
| 20260510170116 | 59 | 243 | 5.2 | 12.2 | 0.00 | 0.20 | 0.13 | 53 | 1009.8 |
| 20260510164607 | 59 | 227 | 5.2 | 13.0 | 0.00 | 0.20 | 0.13 | 53 | 1009.8 |
| 20260510163059 | 58 | 248 | 7.0 | 13.9 | 0.00 | 0.20 | 0.13 | 55 | 1009.9 |
| 20260510161558 | 58 | 286 | 7.8 | 17.4 | 0.00 | 0.20 | 0.13 | 61 | 1009.6 |
| 20260510160106 | 58 | 313 | 4.3 | 10.4 | 0.00 | 0.20 | 0.13 | 64 | 1009.3 |
| 20260510154617 | 57 | 263 | 4.3 | 11.3 | 0.00 | 0.20 | 0.13 | 63 | 1009.5 |
| 20260510153057 | 57 | 298 | 5.2 | 15.6 | 0.00 | 0.20 | 0.13 | 63 | 1009.6 |
| 20260510151556 | 60 | 244 | 6.1 | 15.6 | 0.00 | 0.20 | 0.13 | 50 | 1008.9 |
| 20260510150053 | 60 | 211 | 4.3 | 13.0 | 0.01 | 0.20 | 0.13 | 54 | 1008.9 |
| 20260510144549 | 58 | 201 | 7.8 | 13.0 | 0.01 | 0.20 | 0.13 | 60 | 1009.3 |
| 20260510143051 | 58 | 217 | 9.6 | 17.4 | 0.01 | 0.20 | 0.13 | 63 | 1009.7 |
| 20260510141545 | 56 | 210 | 7.0 | 17.4 | 0.01 | 0.20 | 0.13 | 72 | 1009.8 |
| 20260510140046 | 56 | 210 | 6.1 | 12.2 | 0.00 | 0.20 | 0.12 | 67 | 1010.0 |
| 20260510134545 | 56 | 192 | 7.8 | 19.1 | 0.00 | 0.20 | 0.12 | 63 | 1009.7 |
| 20260510133045 | 57 | 203 | 10.4 | 19.1 | 0.00 | 0.20 | 0.12 | 65 | 1009.7 |
| 20260510131543 | 57 | 171 | 7.8 | 12.2 | 0.00 | 0.20 | 0.12 | 65 | 1009.9 |
| 20260510130142 | 0 | 0.0 | 0.0 | 0.00 | 0.20 | 0.12 | 1010.1 | ||
| 20260510124642 | 0 | 0.0 | 0.0 | 0.00 | 0.20 | 0.12 | 1010.3 | ||
| 20260510123118 | 0 | 0.0 | 0.0 | 0.00 | 0.20 | 0.12 | 1010.4 | ||
| 20260510120131 | 55 | 182 | 8.7 | 16.5 | 0.00 | 0.20 | 0.12 | 71 | 1010.3 |
| 20260510114634 | 53 | 213 | 8.7 | 14.8 | 0.00 | 0.20 | 0.12 | 78 | 1010.6 |
| 20260510113125 | 51 | 182 | 7.8 | 12.2 | 0.01 | 0.20 | 0.12 | 80 | 1010.5 |
| 20260510111632 | 49 | 187 | 7.0 | 9.6 | 0.02 | 0.20 | 0.12 | 83 | 1010.6 |
| 20260510110132 | 48 | 153 | 1.7 | 6.1 | 0.02 | 0.20 | 0.12 | 85 | 1010.7 |
| 20260510104622 | 48 | 207 | 4.3 | 12.2 | 0.06 | 0.20 | 0.12 | 85 | 1011.2 |
| 20260510103132 | 48 | 232 | 1.7 | 12.2 | 0.05 | 0.19 | 0.11 | 86 | 1011.4 |
| 20260510101649 | 49 | 250 | 7.0 | 12.2 | 0.03 | 0.17 | 0.09 | 85 | 1011.4 |
| 20260510100107 | 51 | 269 | 11.3 | 23.5 | 0.03 | 0.17 | 0.09 | 82 | 1010.9 |
| 20260510094559 | 52 | 180 | 11.3 | 15.6 | 0.01 | 0.14 | 0.06 | 79 | 1010.5 |
| 20260510093058 | 53 | 196 | 9.6 | 13.9 | 0.01 | 0.14 | 0.06 | 77 | 1010.1 |
| 20260510091604 | 53 | 173 | 7.8 | 17.4 | 0.01 | 0.14 | 0.06 | 76 | 1009.9 |
| 20260510090107 | 53 | 182 | 7.8 | 10.4 | 0.00 | 0.13 | 0.06 | 76 | 1009.8 |
| 20260510084600 | 53 | 184 | 4.3 | 8.7 | 0.00 | 0.13 | 0.06 | 77 | 1009.8 |
| 20260510083103 | 53 | 183 | 5.2 | 12.2 | 0.00 | 0.13 | 0.06 | 78 | 1009.9 |
| 20260510081551 | 53 | 184 | 2.6 | 7.0 | 0.00 | 0.13 | 0.06 | 82 | 1009.8 |
| 20260510080057 | 52 | 178 | 4.3 | 9.6 | 0.00 | 0.14 | 0.06 | 84 | 1010.0 |
| 20260510074549 | 51 | 151 | 3.5 | 7.0 | 0.00 | 0.14 | 0.06 | 87 | 1010.1 |
| 20260510073048 | 50 | 179 | 4.3 | 7.8 | 0.00 | 0.14 | 0.06 | 87 | 1010.1 |
| 20260510071548 | 50 | 165 | 6.1 | 9.6 | 0.00 | 0.14 | 0.06 | 89 | 1010.2 |
| 20260510070049 | 49 | 170 | 5.2 | 8.7 | 0.00 | 0.14 | 0.06 | 90 | 1010.0 |
| 20260510064605 | 49 | 163 | 4.3 | 8.7 | 0.00 | 0.14 | 0.06 | 90 | 1009.9 |
| 20260510063048 | 48 | 177 | 2.6 | 7.8 | 0.00 | 0.14 | 0.06 | 91 | 1010.0 |
| 20260510061550 | 48 | 156 | 1.7 | 4.3 | 0.00 | 0.14 | 0.06 | 91 | 1010.0 |
| 20260510060044 | 47 | 155 | 1.7 | 5.2 | 0.00 | 0.14 | 0.06 | 91 | 1010.0 |
| 20260510054544 | 47 | 158 | 0.0 | 4.3 | 0.00 | 0.14 | 0.06 | 92 | 1010.0 |
| 20260510053044 | 47 | 173 | 0.9 | 5.2 | 0.00 | 0.14 | 0.06 | 92 | 1009.9 |
| 20260510051544 | 47 | 165 | 0.0 | 0.0 | 0.00 | 0.14 | 0.06 | 92 | 1009.8 |
| 20260510050042 | 47 | 165 | 0.0 | 4.3 | 0.00 | 0.15 | 0.06 | 92 | 1010.0 |
| 20260510044545 | 47 | 165 | 1.7 | 5.2 | 0.00 | 0.15 | 0.06 | 92 | 1010.0 |
| 20260510043040 | 47 | 167 | 3.5 | 7.0 | 0.00 | 0.15 | 0.06 | 92 | 1010.0 |
| 20260510041539 | 48 | 179 | 5.2 | 7.8 | 0.00 | 0.15 | 0.06 | 92 | 1010.0 |
| 20260510040037 | 48 | 167 | 2.6 | 5.2 | 0.00 | 0.15 | 0.06 | 92 | 1010.0 |
| 20260510034539 | 48 | 167 | 1.7 | 4.3 | 0.00 | 0.15 | 0.06 | 92 | 1010.1 |
| 20260510033035 | 48 | 167 | 0.0 | 4.3 | 0.00 | 0.15 | 0.06 | 92 | 1010.1 |
| 20260510031537 | 48 | 167 | 4.3 | 6.1 | 0.00 | 0.15 | 0.06 | 92 | 1010.1 |
| 20260510030034 | 48 | 155 | 2.6 | 5.2 | 0.00 | 0.15 | 0.06 | 92 | 1010.2 |
| 20260510024539 | 48 | 169 | 5.2 | 8.7 | 0.00 | 0.15 | 0.06 | 91 | 1010.2 |
| 20260510023031 | 48 | 175 | 3.5 | 7.0 | 0.00 | 0.15 | 0.06 | 91 | 1010.1 |
| 20260510021529 | 48 | 166 | 1.7 | 6.1 | 0.00 | 0.15 | 0.06 | 91 | 1010.1 |
| 20260510020029 | 48 | 146 | 1.7 | 4.3 | 0.00 | 0.15 | 0.06 | 91 | 1010.3 |
| 20260510014531 | 48 | 141 | 1.7 | 3.5 | 0.00 | 0.15 | 0.06 | 91 | 1010.3 |
| 20260510013028 | 48 | 140 | 0.9 | 4.3 | 0.00 | 0.15 | 0.06 | 91 | 1010.2 |
| 20260510011527 | 48 | 178 | 2.6 | 7.0 | 0.00 | 0.15 | 0.06 | 90 | 1010.4 |
| 20260510010025 | 48 | 170 | 5.2 | 7.8 | 0.01 | 0.15 | 0.06 | 90 | 1010.5 |
| 20260510004523 | 49 | 168 | 4.3 | 7.0 | 0.01 | 0.15 | 0.06 | 90 | 1010.5 |
| 20260510003022 | 49 | 169 | 2.6 | 5.2 | 0.02 | 0.15 | 0.06 | 89 | 1010.5 |
| 20260510001521 | 49 | 172 | 0.0 | 4.3 | 0.04 | 0.15 | 0.06 | 89 | 1010.3 |
| 20260510000020 | 49 | 173 | 4.3 | 7.8 | 0.03 | 0.14 | 0.05 | 88 | 1010.7 |